Location: Bucharest
(44.4268°N, 26.1025°E)
Time: 10:04:37
(UTC+03:00)

SPROUT - Pass Details

Date: 03 July 2022
Orbit: 588 x 598 km, 97.9° (Epoch: 15 August)

Event Time Altitude Azimuth Distance (km) Brightness Sun altitude
Exits shadow 02:00:20 67° 148° (SSE) 641 ? -22.0°
Maximum altitude 02:00:52 83° 75° (ENE) 600 ? -21.9°
Drops below altitude 10° 02:05:03 10° 349° (NNW) 1,927 ? -21.8°
Sets 02:07:13 0° 348° (NNW) 2,834 ? -21.7°
